Bedford, MA

8:21 PM EDT on August 25, 2016 (GMT -0400)
Hanscom

Weather History for KBED - January, 2012

Change the Weather History Date:

Sunday, January 22, 2012

  Actual Average Record
Temperature  
Mean Temperature 18 °F -  
Max Temperature 28 °F 34 °F 63 °F (1959)
Min Temperature 7 °F 12 °F -19 °F (1961)
Degree Days  
Heating Degree Days 48    
Moisture  
Dew Point 12 °F    
Average Humidity 74    
Maximum Humidity 92    
Minimum Humidity 57    
Precipitation  
Precipitation 0.02 in - - ()
Sea Level Pressure  
Sea Level Pressure 30.53 in    
Wind  
Wind Speed 4 mph (North)    
Max Wind Speed 9 mph    
Max Gust Speed -    
Visibility 10 miles    
Events      
Averages and records for this station are not official NWS values.
T = Trace of Precipitation, MM = Missing Value Source: NWS Daily Summary

Daily Weather History Graph

Daily Weather History Graph

Search for Another Location

Airport or City:

Trip Planner

Search our weather history database for the weather conditions in past years. The results will help you decide how hot, cold, wet, or windy it might be!

Date:

Astronomy

Jan. 22, 2012 Rise Set
Actual Time 7:08 AM EST 4:45 PM EST
Civil Twilight 6:37 AM EST 5:16 PM EST
Nautical Twilight 6:03 AM EST 5:50 PM EST
Astronomical Twilight 5:29 AM EST 6:23 PM EST
Moon 6:22 AM EST (1/22) 4:24 PM EST (1/22)
Length of Visible Light 10h 38m
Length of Day
9h 37m
Waning Crescent, 0% of the Moon is Illuminated
Jan 22
Waning Crescent
Jan 23
New
Jan 30
First Quarter
Feb 7
Full
Feb 14
Last Quarter

Hourly Weather History & Observations

Time (EST) Temp. Windchill Dew Point Humidity Pressure Visibility Wind Dir Wind Speed Gust Speed Precip Events Conditions
12:23 AM 12.2 °F 2.9 °F 6.8 °F 79% 30.35 in 10.0 mi North 5.8 mph - N/A   Mostly Cloudy
12:48 AM 12.2 °F 1.7 °F 6.8 °F 79% 30.36 in 10.0 mi NNW 6.9 mph - N/A   Overcast
12:56 AM 12.9 °F 0.7 °F 7.0 °F 77% 30.42 in 10.0 mi NNW 9.2 mph - N/A   Overcast
1:56 AM 12.9 °F 2.6 °F 7.0 °F 77% 30.45 in 10.0 mi NNW 6.9 mph - N/A   Overcast
2:46 AM 10.4 °F 4.0 °F 6.8 °F 85% 30.41 in 10.0 mi NNW 3.5 mph - N/A   Scattered Clouds
2:56 AM 10.9 °F - 6.1 °F 81% 30.47 in 10.0 mi Calm Calm - N/A   Scattered Clouds
3:56 AM 10.0 °F 1.8 °F 6.1 °F 84% 30.50 in 10.0 mi NNW 4.6 mph - N/A   Scattered Clouds
4:09 AM 10.4 °F 4.0 °F 6.8 °F 85% 30.44 in 10.0 mi NNW 3.5 mph - N/A   Mostly Cloudy
4:16 AM 10.4 °F 4.0 °F 5.0 °F 79% 30.44 in 10.0 mi NNW 3.5 mph - N/A   Partly Cloudy
4:56 AM 9.0 °F 2.4 °F 5.0 °F 84% 30.52 in 10.0 mi WNW 3.5 mph - N/A   Partly Cloudy
5:56 AM 8.6 °F - 5.0 °F 85% 30.48 in 10.0 mi Calm Calm - N/A   Partly Cloudy
6:56 AM 7.0 °F - 3.9 °F 87% 30.58 in 10.0 mi Calm Calm - N/A   Clear
7:56 AM 7.0 °F - 5.0 °F 92% 30.59 in 10.0 mi Calm Calm - N/A   Clear
8:56 AM 15.1 °F 9.4 °F 6.1 °F 68% 30.61 in 10.0 mi North 3.5 mph - N/A   Clear
9:56 AM 19.9 °F 11.1 °F 7.0 °F 57% 30.61 in 10.0 mi North 6.9 mph - N/A   Clear
10:56 AM 24.1 °F 17.0 °F 12.0 °F 60% 30.61 in 10.0 mi NNE 5.8 mph - 0.00 in   Clear
11:56 AM 26.1 °F 18.4 °F 14.0 °F 60% 30.59 in 10.0 mi NE 6.9 mph - 0.02 in   Clear
12:52 PM 26.6 °F 22.6 °F 15.8 °F 64% 30.52 in 10.0 mi East 3.5 mph - N/A   Mostly Cloudy
12:56 PM 27.0 °F - 16.0 °F 63% 30.58 in 10.0 mi Calm Calm - N/A   Mostly Cloudy
1:56 PM 27.0 °F 23.0 °F 17.1 °F 66% 30.57 in 10.0 mi ENE 3.5 mph - N/A   Mostly Cloudy
2:33 PM 28.4 °F - 15.8 °F 59% 30.52 in 10.0 mi Calm Calm - N/A   Overcast
2:56 PM 27.0 °F 23.0 °F 17.1 °F 66% 30.58 in 10.0 mi ESE 3.5 mph - N/A   Mostly Cloudy
3:56 PM 28.0 °F 22.8 °F 18.0 °F 66% 30.58 in 10.0 mi SE 4.6 mph - N/A   Overcast
4:56 PM 27.0 °F - 18.0 °F 69% 30.59 in 10.0 mi Calm Calm - N/A   Overcast
5:07 PM 26.6 °F 22.6 °F 19.4 °F 74% 30.54 in 10.0 mi ENE 3.5 mph - N/A   Overcast
5:56 PM 27.0 °F - 18.0 °F 69% 30.59 in 10.0 mi Calm Calm - N/A   Overcast
6:56 PM 27.0 °F - 18.0 °F 69% 30.60 in 10.0 mi Calm Calm - N/A   Overcast
7:56 PM 27.0 °F - 18.0 °F 69% 30.61 in 10.0 mi Calm Calm - N/A   Overcast
8:56 PM 26.1 °F - 19.0 °F 75% 30.61 in 10.0 mi Calm Calm - N/A   Overcast
9:56 PM 26.1 °F - 19.0 °F 75% 30.60 in 10.0 mi Calm Calm - N/A   Overcast
10:56 PM 25.0 °F - 19.0 °F 78% 30.58 in 10.0 mi Calm Calm - N/A   Overcast
11:56 PM 26.1 °F - 19.9 °F 78% 30.56 in 10.0 mi Calm Calm - N/A   Overcast